Location: Unspecified
(0.0000°N, 0.0000°E)
Time: 23:12:02
(UTC+00:00)

S-56A Canister/Altair - Pass Details

Date: 05 October 2020
Orbit: 633 x 2499 km, 38.9° (Epoch: 28 October)

Event Time Altitude Azimuth Distance (km) Brightness Sun altitude
Rises 19:55:43 0° 319° (NW) 5,545 12.3 -31.7°
Reaches altitude 10° 19:59:56 10° 324° (NW) 4,275 11.6 -32.8°
Enters shadow 20:08:31 46° 2° (N) 1,904 9.3 -34.9°
Maximum altitude 20:10:23 52° 37° (NE) 1,672 - -35.4°
Drops below altitude 10° 20:17:17 10° 112° (ESE) 2,873 - -37.1°
Sets 20:19:35 0° 118° (ESE) 3,633 - -37.7°
